Time,TemperatureF,DewpointF,PressureIn,WindDirection,WindDirectionDegrees,WindSpeedMPH,WindSpeedGustMPH,Humidity,HourlyPrecipIn,Conditions,Clouds,dailyrainin,SoftwareType,DateUTC
2013-06-04 00:00:00,52.5,44.8,30.08,SE,135,0.0,0.0,75,0.00,,,-99.99,open2300 version1.11,2013-06-04 04:00:00,
2013-06-04 00:05:00,52.3,44.6,30.08,SE,135,0.0,0.0,75,0.00,,,-99.99,open2300 version1.11,2013-06-04 04:05:00,
2013-06-04 00:10:00,52.3,45.0,30.08,SE,135,0.0,0.0,76,0.00,,,-99.99,open2300 version1.11,2013-06-04 04:10:00,
2013-06-04 00:15:00,52.3,45.0,30.08,SE,135,0.0,0.0,76,0.00,,,-99.99,open2300 version1.11,2013-06-04 04:15:00,
2013-06-04 00:25:00,52.2,45.2,30.08,SE,135,0.0,0.0,77,0.00,,,-99.99,open2300 version1.11,2013-06-04 04:25:00,
2013-06-04 00:35:00,51.8,44.8,30.08,SE,135,0.0,0.0,77,0.00,,,-99.99,open2300 version1.11,2013-06-04 04:35:00,
2013-06-04 00:45:00,51.6,44.6,30.08,SE,135,0.0,0.0,77,0.00,,,-99.99,open2300 version1.11,2013-06-04 04:45:00,
2013-06-04 00:50:00,51.6,44.6,30.09,SE,135,0.0,0.0,77,0.00,,,-99.99,open2300 version1.11,2013-06-04 04:50:00,
2013-06-04 01:05:00,51.6,45.3,30.09,SE,135,0.0,0.0,79,0.00,,,-99.99,open2300 version1.11,2013-06-04 05:05:00,
2013-06-04 01:15:00,51.4,45.2,30.09,SE,135,0.0,0.0,79,0.00,,,-99.99,open2300 version1.11,2013-06-04 05:15:00,
2013-06-04 01:20:00,51.3,45.0,30.09,SE,135,0.0,0.0,79,0.00,,,-99.99,open2300 version1.11,2013-06-04 05:20:00,
2013-06-04 01:25:00,51.1,44.8,30.09,SE,135,0.0,0.0,79,0.00,,,-99.99,open2300 version1.11,2013-06-04 05:25:00,
2013-06-04 01:30:00,51.1,44.8,30.10,SE,135,0.0,0.0,79,0.00,,,-99.99,open2300 version1.11,2013-06-04 05:30:00,
2013-06-04 01:35:00,51.1,44.8,30.09,SE,135,0.0,0.0,79,0.00,,,-99.99,open2300 version1.11,2013-06-04 05:35:00,
2013-06-04 01:40:00,50.9,45.0,30.09,SE,135,0.0,0.0,80,0.00,,,-99.99,open2300 version1.11,2013-06-04 05:40:00,
2013-06-04 01:45:00,50.7,44.8,30.10,SE,135,0.0,0.0,80,0.00,,,-99.99,open2300 version1.11,2013-06-04 05:45:00,
2013-06-04 01:50:00,50.7,44.8,30.10,SE,135,0.0,0.0,80,0.00,,,-99.99,open2300 version1.11,2013-06-04 05:50:00,
2013-06-04 02:00:00,50.7,44.4,30.10,SE,135,0.0,0.0,79,0.00,,,-99.99,open2300 version1.11,2013-06-04 06:00:00,
2013-06-04 02:05:00,50.7,44.4,30.10,SE,135,0.0,0.0,79,0.00,,,-99.99,open2300 version1.11,2013-06-04 06:05:00,
2013-06-04 02:15:00,50.7,44.4,30.11,SE,135,0.0,0.0,79,0.00,,,-99.99,open2300 version1.11,2013-06-04 06:15:00,
2013-06-04 02:20:00,50.7,44.4,30.10,SE,135,0.0,0.0,79,0.00,,,-99.99,open2300 version1.11,2013-06-04 06:20:00,
2013-06-04 02:25:00,50.7,44.8,30.10,SE,135,0.0,0.0,80,0.00,,,-99.99,open2300 version1.11,2013-06-04 06:25:00,
2013-06-04 02:30:00,50.4,44.4,30.11,SE,135,0.0,0.0,80,0.00,,,-99.99,open2300 version1.11,2013-06-04 06:30:00,
2013-06-04 02:35:00,50.2,44.2,30.11,SE,135,0.0,0.0,80,0.00,,,-99.99,open2300 version1.11,2013-06-04 06:35:00,
2013-06-04 02:40:00,50.2,44.2,30.11,SE,135,0.0,0.0,80,0.00,,,-99.99,open2300 version1.11,2013-06-04 06:40:00,
2013-06-04 02:45:00,50.2,44.2,30.10,SE,135,0.0,0.0,80,0.00,,,-99.99,open2300 version1.11,2013-06-04 06:45:00,
2013-06-04 02:55:00,50.0,44.1,30.10,SE,135,0.0,0.0,80,0.00,,,-99.99,open2300 version1.11,2013-06-04 06:55:00,
2013-06-04 03:00:00,50.0,44.1,30.10,SE,135,0.0,0.0,80,0.00,,,-99.99,open2300 version1.11,2013-06-04 07:00:00,
2013-06-04 03:05:00,50.0,44.1,30.10,SE,135,0.0,0.0,80,0.00,,,-99.99,open2300 version1.11,2013-06-04 07:05:00,
2013-06-04 03:10:00,50.0,44.1,30.10,SE,135,0.0,0.0,80,0.00,,,-99.99,open2300 version1.11,2013-06-04 07:10:00,
2013-06-04 03:15:00,49.8,43.9,30.11,SE,135,0.0,0.0,80,0.00,,,-99.99,open2300 version1.11,2013-06-04 07:15:00,
2013-06-04 03:25:00,49.8,43.9,30.11,SE,135,0.0,0.0,80,0.00,,,-99.99,open2300 version1.11,2013-06-04 07:25:00,
2013-06-04 03:30:00,49.8,43.9,30.11,SE,135,0.0,0.0,80,0.00,,,-99.99,open2300 version1.11,2013-06-04 07:30:00,
2013-06-04 03:35:00,49.8,44.2,30.11,SE,135,0.0,0.0,81,0.00,,,-99.99,open2300 version1.11,2013-06-04 07:35:00,
2013-06-04 03:40:00,49.8,44.2,30.11,SE,135,0.0,0.0,81,0.00,,,-99.99,open2300 version1.11,2013-06-04 07:40:00,
2013-06-04 03:50:00,49.8,44.2,30.10,SE,135,0.0,0.0,81,0.00,,,-99.99,open2300 version1.11,2013-06-04 07:50:00,
2013-06-04 03:55:00,49.8,44.2,30.10,SE,135,0.0,0.0,81,0.00,,,-99.99,open2300 version1.11,2013-06-04 07:55:00,
2013-06-04 04:00:00,49.6,44.0,30.10,SE,135,0.0,0.0,81,0.00,,,-99.99,open2300 version1.11,2013-06-04 08:00:00,
2013-06-04 04:05:00,49.6,44.0,30.10,SE,135,0.0,0.0,81,0.00,,,-99.99,open2300 version1.11,2013-06-04 08:05:00,
2013-06-04 04:15:00,49.3,43.6,30.10,SE,135,0.0,0.0,81,0.00,,,-99.99,open2300 version1.11,2013-06-04 08:15:00,
2013-06-04 04:20:00,49.3,43.6,30.10,SE,135,0.0,0.0,81,0.00,,,-99.99,open2300 version1.11,2013-06-04 08:20:00,
2013-06-04 04:30:00,49.1,43.8,30.11,SE,135,0.0,0.0,82,0.00,,,-99.99,open2300 version1.11,2013-06-04 08:30:00,
2013-06-04 04:40:00,48.9,43.6,30.11,SE,135,0.0,0.0,82,0.00,,,-99.99,open2300 version1.11,2013-06-04 08:40:00,
2013-06-04 04:45:00,48.9,43.6,30.11,SE,135,0.0,0.0,82,0.00,,,-99.99,open2300 version1.11,2013-06-04 08:45:00,
2013-06-04 04:55:00,48.7,43.4,30.12,SE,135,0.0,0.0,82,0.00,,,-99.99,open2300 version1.11,2013-06-04 08:55:00,
2013-06-04 05:00:00,48.7,43.4,30.12,SE,135,0.0,0.0,82,0.00,,,-99.99,open2300 version1.11,2013-06-04 09:00:00,
2013-06-04 05:10:00,48.4,43.1,30.11,SE,135,0.0,0.0,82,0.00,,,-99.99,open2300 version1.11,2013-06-04 09:10:00,
2013-06-04 05:20:00,48.0,42.7,30.11,SE,135,0.0,0.0,82,0.00,,,-99.99,open2300 version1.11,2013-06-04 09:20:00,
2013-06-04 05:30:00,48.0,43.0,30.12,SE,135,0.0,0.0,83,0.00,,,-99.99,open2300 version1.11,2013-06-04 09:30:00,
2013-06-04 05:35:00,48.0,43.0,30.12,SE,135,0.0,0.0,83,0.00,,,-99.99,open2300 version1.11,2013-06-04 09:35:00,
2013-06-04 05:45:00,47.8,42.9,30.13,West,270,0.0,0.0,83,0.00,,,-99.99,open2300 version1.11,2013-06-04 09:45:00,
2013-06-04 05:50:00,48.0,43.4,30.13,West,270,0.0,0.0,84,0.00,,,-99.99,open2300 version1.11,2013-06-04 09:50:00,
2013-06-04 06:00:00,48.0,43.4,30.13,West,270,0.0,0.0,84,0.00,,,-99.99,open2300 version1.11,2013-06-04 10:00:00,
2013-06-04 06:05:00,48.0,43.4,30.13,West,270,0.0,0.0,84,0.00,,,-99.99,open2300 version1.11,2013-06-04 10:05:00,
2013-06-04 06:15:00,48.0,43.4,30.13,West,270,0.0,0.0,84,0.00,,,-99.99,open2300 version1.11,2013-06-04 10:15:00,
2013-06-04 06:20:00,48.0,43.4,30.13,West,270,0.0,0.0,84,0.00,,,-99.99,open2300 version1.11,2013-06-04 10:20:00,
2013-06-04 06:25:00,48.0,43.4,30.13,West,270,0.0,0.0,84,0.00,,,-99.99,open2300 version1.11,2013-06-04 10:25:00,
2013-06-04 06:35:00,48.0,43.4,30.14,West,270,0.0,0.0,84,0.00,,,-99.99,open2300 version1.11,2013-06-04 10:35:00,
2013-06-04 06:40:00,48.2,43.6,30.14,West,270,0.0,0.0,84,0.00,,,-99.99,open2300 version1.11,2013-06-04 10:40:00,
2013-06-04 06:45:00,48.4,43.7,30.14,West,270,0.0,0.0,84,0.00,,,-99.99,open2300 version1.11,2013-06-04 10:45:00,
2013-06-04 06:50:00,48.9,44.6,30.14,West,270,0.0,0.0,85,0.00,,,-99.99,open2300 version1.11,2013-06-04 10:50:00,
2013-06-04 06:55:00,49.6,45.2,30.14,West,270,0.0,0.0,85,0.00,,,-99.99,open2300 version1.11,2013-06-04 10:55:00,
2013-06-04 07:00:00,49.8,45.1,30.14,West,270,0.0,0.0,84,0.00,,,-99.99,open2300 version1.11,2013-06-04 11:00:00,
2013-06-04 07:10:00,50.9,45.6,30.16,West,270,0.0,0.0,82,0.00,,,-99.99,open2300 version1.11,2013-06-04 11:10:00,
2013-06-04 07:20:00,52.2,46.5,30.16,West,270,0.0,0.0,81,0.00,,,-99.99,open2300 version1.11,2013-06-04 11:20:00,
2013-06-04 07:30:00,53.6,47.3,30.16,West,270,0.0,0.0,79,0.00,,,-99.99,open2300 version1.11,2013-06-04 11:30:00,
2013-06-04 07:35:00,54.3,47.2,30.16,WNW,292,0.0,0.0,77,0.00,,,-99.99,open2300 version1.11,2013-06-04 11:35:00,
2013-06-04 07:40:00,55.4,47.6,30.16,WNW,292,0.0,0.0,75,0.00,,,-99.99,open2300 version1.11,2013-06-04 11:40:00,
2013-06-04 07:45:00,55.9,47.7,30.16,North,0,0.0,0.0,74,0.00,,,-99.99,open2300 version1.11,2013-06-04 11:45:00,
2013-06-04 07:55:00,56.5,47.5,30.17,North,0,0.0,0.0,72,0.00,,,-99.99,open2300 version1.11,2013-06-04 11:55:00,
2013-06-04 08:00:00,56.5,47.2,30.17,North,0,0.0,0.0,71,0.00,,,-99.99,open2300 version1.11,2013-06-04 12:00:00,
2013-06-04 08:05:00,56.5,46.8,30.17,North,0,0.0,0.0,70,0.00,,,-99.99,open2300 version1.11,2013-06-04 12:05:00,
2013-06-04 08:10:00,56.5,46.8,30.18,East,90,0.0,0.0,70,0.00,,,-99.99,open2300 version1.11,2013-06-04 12:10:00,
2013-06-04 08:15:00,56.8,46.7,30.18,SSE,157,0.0,0.0,69,0.00,,,-99.99,open2300 version1.11,2013-06-04 12:15:00,
2013-06-04 08:25:00,57.4,46.5,30.18,SSE,157,0.0,0.0,67,0.00,,,-99.99,open2300 version1.11,2013-06-04 12:25:00,
2013-06-04 08:30:00,57.6,47.0,30.18,SSE,157,0.0,0.0,68,0.00,,,-99.99,open2300 version1.11,2013-06-04 12:30:00,
2013-06-04 08:35:00,57.7,46.8,30.18,SSE,157,0.0,0.0,67,0.00,,,-99.99,open2300 version1.11,2013-06-04 12:35:00,
2013-06-04 08:40:00,57.9,47.0,30.18,SSE,157,0.0,0.0,67,0.00,,,-99.99,open2300 version1.11,2013-06-04 12:40:00,
2013-06-04 08:45:00,58.3,47.3,30.18,SSE,157,0.0,0.0,67,0.00,,,-99.99,open2300 version1.11,2013-06-04 12:45:00,
2013-06-04 08:50:00,58.3,47.3,30.18,SSE,157,0.0,0.0,67,0.00,,,-99.99,open2300 version1.11,2013-06-04 12:50:00,
2013-06-04 09:00:00,58.5,47.5,30.18,SSE,157,0.1,1.3,67,0.00,,,-99.99,open2300 version1.11,2013-06-04 13:00:00,
2013-06-04 09:05:00,58.6,47.3,30.18,SSE,157,0.0,0.0,66,0.00,,,-99.99,open2300 version1.11,2013-06-04 13:05:00,
2013-06-04 09:10:00,58.6,47.3,30.17,SSE,157,0.0,0.0,66,0.00,,,-99.99,open2300 version1.11,2013-06-04 13:10:00,
2013-06-04 09:15:00,58.6,47.3,30.18,SSE,157,0.1,1.6,66,0.00,,,-99.99,open2300 version1.11,2013-06-04 13:15:00,
2013-06-04 09:20:00,58.6,46.9,30.18,SSE,157,0.0,0.0,65,0.00,,,-99.99,open2300 version1.11,2013-06-04 13:20:00,
2013-06-04 09:25:00,58.8,47.0,30.17,SSE,157,0.0,0.0,65,0.00,,,-99.99,open2300 version1.11,2013-06-04 13:25:00,
2013-06-04 09:30:00,58.8,47.0,30.17,SE,137,0.2,1.8,65,0.00,,,-99.99,open2300 version1.11,2013-06-04 13:30:00,
2013-06-04 09:35:00,59.2,47.0,30.17,East,101,0.4,2.0,64,0.00,,,-99.99,open2300 version1.11,2013-06-04 13:35:00,
2013-06-04 09:40:00,59.2,46.6,30.17,ENE,78,0.2,1.1,63,0.00,,,-99.99,open2300 version1.11,2013-06-04 13:40:00,
2013-06-04 09:45:00,59.2,46.6,30.18,East,97,0.5,2.5,63,0.00,,,-99.99,open2300 version1.11,2013-06-04 13:45:00,
2013-06-04 09:50:00,59.2,46.1,30.18,SSE,157,0.1,1.8,62,0.00,,,-99.99,open2300 version1.11,2013-06-04 13:50:00,
2013-06-04 09:55:00,59.4,46.3,30.18,SSE,157,0.1,0.9,62,0.00,,,-99.99,open2300 version1.11,2013-06-04 13:55:00,
2013-06-04 10:00:00,59.5,46.5,30.18,SSE,157,0.1,0.9,62,0.00,,,-99.99,open2300 version1.11,2013-06-04 14:00:00,
2013-06-04 10:10:00,59.9,46.5,30.18,SSE,157,0.1,1.1,61,0.00,,,-99.99,open2300 version1.11,2013-06-04 14:10:00,
2013-06-04 10:15:00,60.1,46.6,30.17,SSE,167,0.6,3.1,61,0.00,,,-99.99,open2300 version1.11,2013-06-04 14:15:00,
2013-06-04 10:20:00,60.3,46.8,30.18,South,180,0.0,0.0,61,0.00,,,-99.99,open2300 version1.11,2013-06-04 14:20:00,
2013-06-04 10:30:00,60.6,47.2,30.17,SE,135,0.0,0.0,61,0.00,,,-99.99,open2300 version1.11,2013-06-04 14:30:00,
2013-06-04 10:35:00,60.8,46.9,30.17,East,90,0.0,0.0,60,0.00,,,-99.99,open2300 version1.11,2013-06-04 14:35:00,
2013-06-04 10:40:00,61.2,46.3,30.18,ENE,67,0.1,1.6,58,0.00,,,-99.99,open2300 version1.11,2013-06-04 14:40:00,
2013-06-04 10:45:00,61.3,46.5,30.17,ENE,67,0.1,1.1,58,0.00,,,-99.99,open2300 version1.11,2013-06-04 14:45:00,
2013-06-04 10:50:00,61.5,46.1,30.17,East,90,0.0,0.0,57,0.00,,,-99.99,open2300 version1.11,2013-06-04 14:50:00,
2013-06-04 10:55:00,61.9,46.5,30.18,East,90,0.0,0.0,57,0.00,,,-99.99,open2300 version1.11,2013-06-04 14:55:00,
2013-06-04 11:05:00,62.4,46.9,30.18,East,90,0.1,1.8,57,0.00,,,-99.99,open2300 version1.11,2013-06-04 15:05:00,
2013-06-04 11:10:00,62.8,46.8,30.18,East,90,0.1,1.1,56,0.00,,,-99.99,open2300 version1.11,2013-06-04 15:10:00,
2013-06-04 11:15:00,63.1,47.1,30.18,SE,135,0.0,0.7,56,0.00,,,-99.99,open2300 version1.11,2013-06-04 15:15:00,
2013-06-04 11:20:00,63.5,47.4,30.18,SE,135,0.1,1.1,56,0.00,,,-99.99,open2300 version1.11,2013-06-04 15:20:00,
2013-06-04 11:25:00,63.5,46.9,30.18,South,180,0.1,1.1,55,0.00,,,-99.99,open2300 version1.11,2013-06-04 15:25:00,
2013-06-04 11:35:00,64.0,46.9,30.18,SSW,202,0.0,0.0,54,0.00,,,-99.99,open2300 version1.11,2013-06-04 15:35:00,
2013-06-04 11:40:00,64.2,47.1,30.18,SSW,202,0.0,0.7,54,0.00,,,-99.99,open2300 version1.11,2013-06-04 15:40:00,
2013-06-04 11:45:00,64.2,47.1,30.18,SSW,202,0.0,0.7,54,0.00,,,-99.99,open2300 version1.11,2013-06-04 15:45:00,
2013-06-04 11:55:00,64.2,46.6,30.18,ENE,77,0.6,3.4,53,0.00,,,-99.99,open2300 version1.11,2013-06-04 15:55:00,
2013-06-04 12:00:00,64.2,46.1,30.18,ESE,112,0.4,2.7,52,0.00,,,-99.99,open2300 version1.11,2013-06-04 16:00:00,
2013-06-04 12:05:00,64.2,46.1,30.17,NE,45,0.1,1.1,52,0.00,,,-99.99,open2300 version1.11,2013-06-04 16:05:00,
2013-06-04 12:10:00,64.6,46.5,30.17,ENE,73,0.1,0.9,52,0.00,,,-99.99,open2300 version1.11,2013-06-04 16:10:00,
2013-06-04 12:15:00,64.8,46.6,30.17,ESE,112,0.1,1.1,52,0.00,,,-99.99,open2300 version1.11,2013-06-04 16:15:00,
2013-06-04 12:20:00,65.1,47.0,30.17,SSE,157,0.0,0.0,52,0.00,,,-99.99,open2300 version1.11,2013-06-04 16:20:00,
2013-06-04 12:25:00,65.5,46.9,30.17,SSE,157,0.1,1.1,51,0.00,,,-99.99,open2300 version1.11,2013-06-04 16:25:00,
2013-06-04 12:30:00,65.8,47.2,30.17,SSE,157,0.0,0.0,51,0.00,,,-99.99,open2300 version1.11,2013-06-04 16:30:00,
2013-06-04 12:35:00,66.0,47.4,30.17,SSE,157,0.0,0.0,51,0.00,,,-99.99,open2300 version1.11,2013-06-04 16:35:00,
2013-06-04 12:40:00,66.2,47.1,30.16,SE,137,0.2,1.8,50,0.00,,,-99.99,open2300 version1.11,2013-06-04 16:40:00,
2013-06-04 12:50:00,66.6,47.4,30.16,NE,45,0.0,0.7,50,0.00,,,-99.99,open2300 version1.11,2013-06-04 16:50:00,
2013-06-04 13:00:00,66.7,46.4,30.16,East,90,0.0,0.9,48,0.00,,,-99.99,open2300 version1.11,2013-06-04 17:00:00,
2013-06-04 13:05:00,66.9,47.2,30.16,SE,135,0.0,0.0,49,0.00,,,-99.99,open2300 version1.11,2013-06-04 17:05:00,
2013-06-04 13:10:00,67.3,47.5,30.16,ESE,112,0.0,0.0,49,0.00,,,-99.99,open2300 version1.11,2013-06-04 17:10:00,
2013-06-04 13:15:00,67.5,47.7,30.16,ENE,63,0.7,2.9,49,0.00,,,-99.99,open2300 version1.11,2013-06-04 17:15:00,
2013-06-04 13:20:00,67.6,47.2,30.16,ENE,67,0.2,2.5,48,0.00,,,-99.99,open2300 version1.11,2013-06-04 17:20:00,
2013-06-04 13:25:00,67.6,46.6,30.16,ENE,72,0.8,3.4,47,0.00,,,-99.99,open2300 version1.11,2013-06-04 17:25:00,
2013-06-04 13:30:00,67.6,46.6,30.16,ENE,78,0.4,2.7,47,0.00,,,-99.99,open2300 version1.11,2013-06-04 17:30:00,
2013-06-04 13:40:00,68.4,48.5,30.16,ESE,112,0.0,0.0,49,0.00,,,-99.99,open2300 version1.11,2013-06-04 17:40:00,
2013-06-04 13:45:00,68.9,49.0,30.16,ESE,112,0.0,0.0,49,0.00,,,-99.99,open2300 version1.11,2013-06-04 17:45:00,
2013-06-04 13:50:00,69.4,49.4,30.16,SE,135,0.0,0.0,49,0.00,,,-99.99,open2300 version1.11,2013-06-04 17:50:00,
2013-06-04 13:55:00,70.0,49.3,30.16,NE,45,0.1,0.7,48,0.00,,,-99.99,open2300 version1.11,2013-06-04 17:55:00,
2013-06-04 14:00:00,70.2,50.1,30.16,WSW,255,0.7,2.9,49,0.00,,,-99.99,open2300 version1.11,2013-06-04 18:00:00,
2013-06-04 14:05:00,70.5,49.8,30.16,West,270,0.1,1.6,48,0.00,,,-99.99,open2300 version1.11,2013-06-04 18:05:00,
2013-06-04 14:10:00,70.7,49.4,30.16,West,270,0.0,0.0,47,0.00,,,-99.99,open2300 version1.11,2013-06-04 18:10:00,
2013-06-04 14:15:00,70.9,49.5,30.16,WSW,250,0.6,2.5,47,0.00,,,-99.99,open2300 version1.11,2013-06-04 18:15:00,
2013-06-04 14:20:00,71.2,49.9,30.16,WSW,247,0.3,3.1,47,0.00,,,-99.99,open2300 version1.11,2013-06-04 18:20:00,
2013-06-04 14:30:00,71.4,49.4,30.16,WNW,292,0.2,2.0,46,0.00,,,-99.99,open2300 version1.11,2013-06-04 18:30:00,
2013-06-04 14:35:00,71.4,50.0,30.15,South,180,0.2,1.3,47,0.00,,,-99.99,open2300 version1.11,2013-06-04 18:35:00,
2013-06-04 14:40:00,71.8,50.4,30.15,South,180,0.1,1.1,47,0.00,,,-99.99,open2300 version1.11,2013-06-04 18:40:00,
2013-06-04 14:45:00,72.0,49.9,30.16,SW,225,0.1,0.9,46,0.00,,,-99.99,open2300 version1.11,2013-06-04 18:45:00,
2013-06-04 14:50:00,72.1,49.5,30.16,SSW,213,0.4,1.6,45,0.00,,,-99.99,open2300 version1.11,2013-06-04 18:50:00,
2013-06-04 14:55:00,72.1,49.5,30.16,WSW,247,0.1,0.7,45,0.00,,,-99.99,open2300 version1.11,2013-06-04 18:55:00,
2013-06-04 15:00:00,72.1,49.5,30.16,WSW,247,0.0,0.7,45,0.00,,,-99.99,open2300 version1.11,2013-06-04 19:00:00,
2013-06-04 15:05:00,72.1,50.1,30.16,North,4,0.3,3.4,46,0.00,,,-99.99,open2300 version1.11,2013-06-04 19:05:00,
2013-06-04 15:15:00,72.0,48.7,30.16,NE,45,0.0,0.7,44,0.00,,,-99.99,open2300 version1.11,2013-06-04 19:15:00,
2013-06-04 15:20:00,71.8,49.2,30.16,East,90,0.1,2.0,45,0.00,,,-99.99,open2300 version1.11,2013-06-04 19:20:00,
2013-06-04 15:25:00,72.0,49.9,30.15,East,90,0.0,0.0,46,0.00,,,-99.99,open2300 version1.11,2013-06-04 19:25:00,
2013-06-04 15:30:00,72.0,49.3,30.15,East,90,0.0,0.0,45,0.00,,,-99.99,open2300 version1.11,2013-06-04 19:30:00,
2013-06-04 15:35:00,72.1,49.5,30.15,East,90,0.1,0.9,45,0.00,,,-99.99,open2300 version1.11,2013-06-04 19:35:00,
2013-06-04 15:40:00,72.3,49.7,30.15,ESE,120,0.3,3.4,45,0.00,,,-99.99,open2300 version1.11,2013-06-04 19:40:00,
2013-06-04 15:50:00,72.3,49.1,30.15,SE,135,0.1,1.3,44,0.00,,,-99.99,open2300 version1.11,2013-06-04 19:50:00,
2013-06-04 15:55:00,72.3,47.9,30.14,ESE,107,0.8,3.4,42,0.00,,,-99.99,open2300 version1.11,2013-06-04 19:55:00,
2013-06-04 16:00:00,72.1,48.3,30.13,East,83,0.9,3.4,43,0.00,,,-99.99,open2300 version1.11,2013-06-04 20:00:00,
2013-06-04 16:05:00,72.0,48.7,30.14,East,101,0.9,2.9,44,0.00,,,-99.99,open2300 version1.11,2013-06-04 20:05:00,
2013-06-04 16:10:00,72.0,48.7,30.13,NNE,22,0.0,0.9,44,0.00,,,-99.99,open2300 version1.11,2013-06-04 20:10:00,
2013-06-04 16:15:00,72.0,48.7,30.13,NNE,22,0.1,1.6,44,0.00,,,-99.99,open2300 version1.11,2013-06-04 20:15:00,
2013-06-04 16:20:00,72.0,49.3,30.13,West,270,0.1,1.1,45,0.00,,,-99.99,open2300 version1.11,2013-06-04 20:20:00,
2013-06-04 16:25:00,71.8,48.6,30.13,West,270,0.0,0.9,44,0.00,,,-99.99,open2300 version1.11,2013-06-04 20:25:00,
2013-06-04 16:30:00,71.8,48.6,30.13,ENE,67,0.0,0.7,44,0.00,,,-99.99,open2300 version1.11,2013-06-04 20:30:00,
2013-06-04 16:35:00,71.8,48.6,30.13,NNW,348,0.2,2.0,44,0.00,,,-99.99,open2300 version1.11,2013-06-04 20:35:00,
2013-06-04 16:40:00,71.6,48.4,30.13,ESE,112,0.0,0.0,44,0.00,,,-99.99,open2300 version1.11,2013-06-04 20:40:00,
2013-06-04 16:45:00,71.6,48.4,30.13,ESE,112,0.0,0.0,44,0.00,,,-99.99,open2300 version1.11,2013-06-04 20:45:00,
2013-06-04 16:50:00,71.8,49.2,30.13,SE,135,0.0,0.0,45,0.00,,,-99.99,open2300 version1.11,2013-06-04 20:50:00,
2013-06-04 16:55:00,71.4,48.9,30.13,SE,135,0.0,0.9,45,0.00,,,-99.99,open2300 version1.11,2013-06-04 20:55:00,
2013-06-04 17:05:00,71.4,48.9,30.13,East,87,0.8,2.7,45,0.00,,,-99.99,open2300 version1.11,2013-06-04 21:05:00,
2013-06-04 17:10:00,70.9,48.4,30.13,East,94,0.1,0.7,45,0.00,,,-99.99,open2300 version1.11,2013-06-04 21:10:00,
2013-06-04 17:15:00,70.9,49.0,30.14,NNE,22,0.1,1.1,46,0.00,,,-99.99,open2300 version1.11,2013-06-04 21:15:00,
2013-06-04 17:20:00,70.7,48.2,30.14,NE,45,0.4,3.1,45,0.00,,,-99.99,open2300 version1.11,2013-06-04 21:20:00,
2013-06-04 17:30:00,70.3,48.5,30.14,NE,45,0.0,0.0,46,0.00,,,-99.99,open2300 version1.11,2013-06-04 21:30:00,
2013-06-04 17:35:00,70.2,48.3,30.15,NE,45,0.0,0.0,46,0.00,,,-99.99,open2300 version1.11,2013-06-04 21:35:00,
2013-06-04 17:40:00,70.0,48.1,30.15,NE,45,0.0,0.0,46,0.00,,,-99.99,open2300 version1.11,2013-06-04 21:40:00,
2013-06-04 17:45:00,70.0,48.1,30.14,NE,45,0.0,0.0,46,0.00,,,-99.99,open2300 version1.11,2013-06-04 21:45:00,
2013-06-04 17:50:00,70.0,48.1,30.14,NE,45,0.1,1.8,46,0.00,,,-99.99,open2300 version1.11,2013-06-04 21:50:00,
2013-06-04 18:00:00,70.0,48.7,30.14,NE,45,0.0,0.0,47,0.00,,,-99.99,open2300 version1.11,2013-06-04 22:00:00,
2013-06-04 18:05:00,69.8,48.6,30.14,NE,45,0.0,0.0,47,0.00,,,-99.99,open2300 version1.11,2013-06-04 22:05:00,
2013-06-04 18:10:00,69.6,47.8,30.14,ENE,68,0.8,3.4,46,0.00,,,-99.99,open2300 version1.11,2013-06-04 22:10:00,
2013-06-04 18:15:00,69.4,48.2,30.14,ENE,67,0.0,0.7,47,0.00,,,-99.99,open2300 version1.11,2013-06-04 22:15:00,
2013-06-04 18:20:00,69.1,47.9,30.13,ENE,72,0.1,1.3,47,0.00,,,-99.99,open2300 version1.11,2013-06-04 22:20:00,
2013-06-04 18:25:00,69.1,47.9,30.13,East,90,0.0,0.7,47,0.00,,,-99.99,open2300 version1.11,2013-06-04 22:25:00,
2013-06-04 18:35:00,69.1,48.5,30.13,East,90,0.0,0.0,48,0.00,,,-99.99,open2300 version1.11,2013-06-04 22:35:00,
2013-06-04 18:40:00,69.1,48.5,30.14,ENE,71,0.3,2.0,48,0.00,,,-99.99,open2300 version1.11,2013-06-04 22:40:00,
2013-06-04 18:45:00,68.9,48.4,30.13,ENE,67,0.1,1.1,48,0.00,,,-99.99,open2300 version1.11,2013-06-04 22:45:00,
2013-06-04 18:50:00,68.7,48.2,30.13,ENE,73,0.8,2.7,48,0.00,,,-99.99,open2300 version1.11,2013-06-04 22:50:00,
2013-06-04 18:55:00,68.7,47.6,30.13,ENE,70,0.7,3.1,47,0.00,,,-99.99,open2300 version1.11,2013-06-04 22:55:00,
2013-06-04 19:05:00,68.5,48.0,30.13,East,90,0.2,1.3,48,0.00,,,-99.99,open2300 version1.11,2013-06-04 23:05:00,
2013-06-04 19:10:00,68.2,47.7,30.13,East,90,0.1,1.1,48,0.00,,,-99.99,open2300 version1.11,2013-06-04 23:10:00,
2013-06-04 19:15:00,68.2,47.7,30.13,East,90,0.0,0.9,48,0.00,,,-99.99,open2300 version1.11,2013-06-04 23:15:00,
2013-06-04 19:20:00,68.2,47.7,30.13,ENE,74,0.5,2.0,48,0.00,,,-99.99,open2300 version1.11,2013-06-04 23:20:00,
2013-06-04 19:25:00,68.0,48.1,30.13,NE,45,0.0,0.0,49,0.00,,,-99.99,open2300 version1.11,2013-06-04 23:25:00,
2013-06-04 19:30:00,67.8,48.0,30.13,East,90,0.1,1.3,49,0.00,,,-99.99,open2300 version1.11,2013-06-04 23:30:00,
2013-06-04 19:40:00,67.6,47.8,30.13,East,90,0.2,2.2,49,0.00,,,-99.99,open2300 version1.11,2013-06-04 23:40:00,
2013-06-04 19:45:00,67.6,47.8,30.13,NE,34,0.4,1.6,49,0.00,,,-99.99,open2300 version1.11,2013-06-04 23:45:00,
2013-06-04 19:50:00,67.3,46.9,30.13,NE,39,0.4,1.6,48,0.00,,,-99.99,open2300 version1.11,2013-06-04 23:50:00,
2013-06-04 19:55:00,67.1,47.3,30.13,ENE,70,0.8,2.5,49,0.00,,,-99.99,open2300 version1.11,2013-06-04 23:55:00,
2013-06-04 20:00:00,66.9,47.2,30.13,ENE,78,0.1,1.1,49,0.00,,,-99.99,open2300 version1.11,2013-06-05 00:00:00,
2013-06-04 20:05:00,66.7,47.0,30.13,East,82,0.1,1.1,49,0.00,,,-99.99,open2300 version1.11,2013-06-05 00:05:00,
2013-06-04 20:10:00,66.4,46.7,30.14,ENE,75,0.2,1.3,49,0.00,,,-99.99,open2300 version1.11,2013-06-05 00:10:00,
2013-06-04 20:15:00,66.2,46.5,30.14,East,90,0.0,0.0,49,0.00,,,-99.99,open2300 version1.11,2013-06-05 00:15:00,
2013-06-04 20:25:00,65.8,46.2,30.14,East,90,0.0,0.0,49,0.00,,,-99.99,open2300 version1.11,2013-06-05 00:25:00,
2013-06-04 20:30:00,65.7,46.6,30.14,East,90,0.0,0.0,50,0.00,,,-99.99,open2300 version1.11,2013-06-05 00:30:00,
2013-06-04 20:35:00,65.3,46.2,30.15,East,90,0.0,0.0,50,0.00,,,-99.99,open2300 version1.11,2013-06-05 00:35:00,
2013-06-04 20:40:00,65.1,46.0,30.15,East,90,0.0,0.0,50,0.00,,,-99.99,open2300 version1.11,2013-06-05 00:40:00,
2013-06-04 20:45:00,65.1,46.5,30.15,East,90,0.0,0.0,51,0.00,,,-99.99,open2300 version1.11,2013-06-05 00:45:00,
2013-06-04 20:50:00,64.8,46.2,30.15,East,90,0.0,0.0,51,0.00,,,-99.99,open2300 version1.11,2013-06-05 00:50:00,
2013-06-04 20:55:00,64.6,46.0,30.15,East,90,0.2,1.6,51,0.00,,,-99.99,open2300 version1.11,2013-06-05 00:55:00,
2013-06-04 21:00:00,64.2,45.6,30.16,ESE,111,1.4,5.8,51,0.00,,,-99.99,open2300 version1.11,2013-06-05 01:00:00,
2013-06-04 21:05:00,64.0,45.0,30.16,East,85,1.1,3.8,50,0.00,,,-99.99,open2300 version1.11,2013-06-05 01:05:00,
2013-06-04 21:10:00,63.9,44.8,30.15,ESE,123,0.4,2.9,50,0.00,,,-99.99,open2300 version1.11,2013-06-05 01:10:00,
2013-06-04 21:15:00,63.5,44.5,30.15,SSE,157,0.0,0.9,50,0.00,,,-99.99,open2300 version1.11,2013-06-05 01:15:00,
2013-06-04 21:25:00,63.1,44.2,30.16,SSE,157,0.0,0.7,50,0.00,,,-99.99,open2300 version1.11,2013-06-05 01:25:00,
2013-06-04 21:30:00,63.0,44.0,30.16,East,90,0.2,1.6,50,0.00,,,-99.99,open2300 version1.11,2013-06-05 01:30:00,
2013-06-04 21:35:00,62.8,43.3,30.16,ESE,115,1.5,4.7,49,0.00,,,-99.99,open2300 version1.11,2013-06-05 01:35:00,
2013-06-04 21:45:00,62.4,43.0,30.16,ESE,112,0.1,0.9,49,0.00,,,-99.99,open2300 version1.11,2013-06-05 01:45:00,
2013-06-04 21:55:00,62.1,42.6,30.17,SSE,157,0.0,0.0,49,0.00,,,-99.99,open2300 version1.11,2013-06-05 01:55:00,
2013-06-04 22:00:00,61.9,42.5,30.17,SE,146,0.5,2.9,49,0.00,,,-99.99,open2300 version1.11,2013-06-05 02:00:00,
2013-06-04 22:05:00,61.5,41.6,30.17,ESE,112,0.2,1.3,48,0.00,,,-99.99,open2300 version1.11,2013-06-05 02:05:00,
2013-06-04 22:10:00,61.5,42.1,30.17,SSE,147,0.4,3.4,49,0.00,,,-99.99,open2300 version1.11,2013-06-05 02:10:00,
2013-06-04 22:15:00,61.3,42.0,30.17,SE,133,0.8,3.4,49,0.00,,,-99.99,open2300 version1.11,2013-06-05 02:15:00,
2013-06-04 22:20:00,61.3,42.0,30.17,SSE,157,0.3,2.7,49,0.00,,,-99.99,open2300 version1.11,2013-06-05 02:20:00,
2013-06-04 22:25:00,61.0,41.7,30.17,SSE,157,0.0,0.7,49,0.00,,,-99.99,open2300 version1.11,2013-06-05 02:25:00,
2013-06-04 22:30:00,61.0,41.7,30.17,South,172,0.1,2.9,49,0.00,,,-99.99,open2300 version1.11,2013-06-05 02:30:00,
2013-06-04 22:35:00,60.8,40.9,30.17,South,180,0.0,0.0,48,0.00,,,-99.99,open2300 version1.11,2013-06-05 02:35:00,
2013-06-04 22:40:00,60.6,40.8,30.17,South,180,0.0,0.0,48,0.00,,,-99.99,open2300 version1.11,2013-06-05 02:40:00,
2013-06-04 22:45:00,60.6,41.3,30.17,South,180,0.0,0.0,49,0.00,,,-99.99,open2300 version1.11,2013-06-05 02:45:00,
2013-06-04 22:55:00,60.4,40.6,30.17,South,180,0.0,0.0,48,0.00,,,-99.99,open2300 version1.11,2013-06-05 02:55:00,
2013-06-04 23:00:00,60.1,40.3,30.17,South,180,0.0,0.0,48,0.00,,,-99.99,open2300 version1.11,2013-06-05 03:00:00,
2013-06-04 23:05:00,60.1,40.9,30.17,South,180,0.0,0.0,49,0.00,,,-99.99,open2300 version1.11,2013-06-05 03:05:00,
2013-06-04 23:10:00,59.9,40.7,30.17,South,180,0.0,0.2,49,0.00,,,-99.99,open2300 version1.11,2013-06-05 03:10:00,
2013-06-04 23:15:00,59.9,40.7,30.17,South,180,0.0,0.0,49,0.00,,,-99.99,open2300 version1.11,2013-06-05 03:15:00,
2013-06-04 23:25:00,59.5,40.4,30.17,South,180,0.0,0.0,49,0.00,,,-99.99,open2300 version1.11,2013-06-05 03:25:00,
2013-06-04 23:30:00,59.4,40.8,30.16,South,180,0.0,0.9,50,0.00,,,-99.99,open2300 version1.11,2013-06-05 03:30:00,
2013-06-04 23:40:00,59.0,40.5,30.17,South,180,0.0,1.1,50,0.00,,,-99.99,open2300 version1.11,2013-06-05 03:40:00,
2013-06-04 23:45:00,58.8,40.8,30.17,South,180,0.0,0.0,51,0.00,,,-99.99,open2300 version1.11,2013-06-05 03:45:00,
2013-06-04 23:50:00,58.6,40.6,30.16,South,180,0.0,0.0,51,0.00,,,-99.99,open2300 version1.11,2013-06-05 03:50:00,